Regional Weather Roundup
Issued by NWS State College, PA

Home | Current Version | Previous Version | Graphics & Text | Print | Product List | Glossary On
Versions: 1 2 3 4 5 6 7 8 9 10 11 12 13 14 15 16 17 18 19 20 21 22 23 24 25 26 27 28 29 30 31 32 33 34 35 36 37 38 39 40 41 42 43 44 45 46 47 48 49 50
000
ASUS41 KCTP 280103
RWRCTP

REGIONAL WEATHER ROUNDUP
NATIONAL WEATHER SERVICE STATE COLLEGE PA
900 PM EDT THU AUG 27 2015

Note: "fair" indicates few or no clouds below 12,000 feet with no
significant weather and/or obstructions to visibility.

* = STATION THAT DOES NOT REPORT PRECIPITATION /E.G. RAIN...SNOW...ETC/
    THUNDER OR FOG.

PAZ002>004-007>009-013>016-020>023-029>032-280200-
WESTERN PENNSYLVANIA

CITY           SKY/WX    TMP DP  RH WIND       PRES   REMARKS
ERIE           CLEAR     61  54  77 S3        30.18R
MEADVILLE      CLEAR     60  52  74 NW3       30.19R
FRANKLIN*      CLEAR     57  52  82 CALM      30.21R
NEW CASTLE     FAIR      64  58  81 CALM      30.19R
BEAVER COUNTY  MOCLDY    64  57  77 CALM      30.18R
BUTLER*        PTCLDY    63  57  82 CALM      30.19S
PITTSBURGH INT CLOUDY    67  57  70 W3        30.17R
PITTSBURGH     CLOUDY    66  51  58 CALM      30.16R
INDIANA*       CLOUDY    66  57  72 CALM      30.21R
LATROBE        CLOUDY    64  57  77 CALM      30.18R
WASHINGTON CO* MOCLDY    63  57  82 CALM      30.18R
$$

PAZ004>006-010>012-017>019-024>028-033>037-041-042-045-046-049>053-280200-
CENTRAL PENNSYLVANIA

CITY           SKY/WX    TMP DP  RH WIND       PRES   REMARKS
BRADFORD       CLEAR     54  51  90 CALM      30.20R
DUBOIS         CLOUDY    64  54  69 NW7       30.18R
CLEARFIELD     CLOUDY    65  55  70 W3        30.18R
JOHNSTOWN      CLOUDY    62  53  72 W3        30.20R
ALTOONA        CLOUDY    64  55  72 CALM      30.18R
STATE COLLEGE  CLOUDY    64  57  77 CALM      30.16R
WILLIAMSPORT   CLOUDY    66  59  78 CALM      30.13R
SELINSGROVE    MOCLDY    61  59  93 CALM      30.14R
FT INDIANTOWN  CLEAR     66  56  71 NW3       30.14R
CAPITAL CITY   CLOUDY    68  58  70 CALM      30.14R
HARRISBURG     MOCLDY    68  59  73 CALM      30.13R
YORK           CLOUDY    64  60  87 CALM      30.14R
$$

PAZ038>040-043-044-047-048-054-055-060>062-067>071-280200-
EASTERN PENNSYLVANIA

CITY           SKY/WX    TMP DP  RH WIND       PRES   REMARKS
SCRANTON       CLOUDY    67  53  61 NW3       30.14R
MOUNT POCONO   MOCLDY    56  53  90 NW3       30.16R
ALLENTOWN      CLEAR     65  54  67 CALM      30.12R
QUAKERTOWN*    CLEAR     66  54  63 N3        30.13R
READING        CLEAR     67  54  63 NW6       30.12R
LANCASTER      CLOUDY    68  56  65 W3        30.13R
COATESVILLE    CLEAR     64  55  72 NW5       30.14R
POTTSTOWN      CLEAR     64  56  75 CALM      30.14R
BLUE BELL      CLEAR     61  59  94 CALM      30.11R
DOYLESTOWN     CLEAR     63  56  78 CALM      30.12R
WILLOW GROVE   NOT AVBL
NORTH PHILA    CLEAR     70  53  54 N5        30.12R
PHILADELPHIA   PTCLDY    75  52  44 NW7       30.12R
$$


USA.gov is the U.S. government's official web portal to all federal, state and local government web resources and services.